Time,TemperatureF,DewpointF,PressureIn,WindDirection,WindDirectionDegrees,WindSpeedMPH,WindSpeedGustMPH,Humidity,HourlyPrecipIn,Conditions,Clouds,dailyrainin,SoftwareType,DateUTC
2017-12-17 00:00:00,46.6,35.1,30.07,SSE,157,3.7,-999.0,64,-99.99,,,0.00,,2017-12-17 05:00:00,
2017-12-17 00:05:00,46.0,35.7,30.07,SSW,202,3.2,-999.0,67,-99.99,,,0.00,,2017-12-17 05:05:00,
2017-12-17 00:10:00,45.7,36.5,30.07,South,180,0.0,-999.0,70,-99.99,,,0.00,,2017-12-17 05:10:00,
2017-12-17 00:16:00,45.0,36.9,30.07,SE,135,2.2,-999.0,73,-99.99,,,0.00,,2017-12-17 05:16:00,
2017-12-17 00:19:00,44.8,37.4,30.07,ESE,112,3.7,-999.0,75,-99.99,,,0.00,,2017-12-17 05:19:00,
2017-12-17 00:24:00,44.2,37.8,30.06,ESE,112,1.1,-999.0,78,-99.99,,,0.01,,2017-12-17 05:24:00,
2017-12-17 00:29:00,43.9,37.8,30.06,SW,225,3.2,-999.0,79,-99.99,,,0.01,,2017-12-17 05:29:00,
2017-12-17 00:30:00,43.7,37.9,30.06,WSW,247,2.7,-999.0,80,-99.99,,,0.02,,2017-12-17 05:30:00,
2017-12-17 00:35:00,43.3,37.9,30.06,West,270,0.0,-999.0,81,-99.99,,,0.02,,2017-12-17 05:35:00,
2017-12-17 00:41:00,43.0,37.9,30.06,SSE,157,0.0,-999.0,82,-99.99,,,0.03,,2017-12-17 05:41:00,
2017-12-17 00:45:00,42.8,37.7,30.06,SSW,202,0.0,-999.0,82,-99.99,,,0.03,,2017-12-17 05:45:00,
2017-12-17 00:50:00,42.4,37.6,30.07,NNW,337,1.1,-999.0,83,-99.99,,,0.04,,2017-12-17 05:50:00,
2017-12-17 00:51:00,42.4,37.6,30.07,West,270,2.7,-999.0,83,-99.99,,,0.04,,2017-12-17 05:51:00,
2017-12-17 00:57:00,42.3,37.8,30.07,West,270,2.7,-999.0,84,-99.99,,,0.05,,2017-12-17 05:57:00,
2017-12-17 01:02:00,42.1,38.2,30.08,West,270,0.0,-999.0,86,-99.99,,,0.00,,2017-12-17 06:02:00,
2017-12-17 01:03:00,42.1,38.2,30.08,SSW,202,0.0,-999.0,86,-99.99,,,0.00,,2017-12-17 06:03:00,
2017-12-17 01:09:00,41.9,38.3,30.08,SSW,202,0.0,-999.0,87,-99.99,,,0.01,,2017-12-17 06:09:00,
2017-12-17 01:15:00,41.9,38.3,30.10,SW,225,2.7,-999.0,87,-99.99,,,0.02,,2017-12-17 06:15:00,
2017-12-17 01:16:00,41.9,38.3,30.10,West,270,0.0,-999.0,87,-99.99,,,0.02,,2017-12-17 06:16:00,
2017-12-17 01:21:00,41.7,38.1,30.10,ESE,112,0.0,-999.0,87,-99.99,,,0.03,,2017-12-17 06:21:00,
2017-12-17 01:26:00,41.7,38.4,30.10,NW,315,0.0,-999.0,88,-99.99,,,0.04,,2017-12-17 06:26:00,
2017-12-17 01:29:00,41.5,38.2,30.10,South,180,0.0,-999.0,88,-99.99,,,0.04,,2017-12-17 06:29:00,
2017-12-17 01:34:00,41.5,38.2,30.10,SE,135,0.0,-999.0,88,-99.99,,,0.05,,2017-12-17 06:34:00,
2017-12-17 01:39:00,41.5,38.2,30.10,NNE,22,0.0,-999.0,88,-99.99,,,0.06,,2017-12-17 06:39:00,
2017-12-17 01:43:00,41.5,38.2,30.10,East,90,0.0,-999.0,88,-99.99,,,0.06,,2017-12-17 06:43:00,
2017-12-17 01:49:00,41.4,38.4,30.08,East,90,0.0,-999.0,89,-99.99,,,0.07,,2017-12-17 06:49:00,
2017-12-17 01:50:00,41.4,38.4,30.08,NE,45,0.0,-999.0,89,-99.99,,,0.07,,2017-12-17 06:50:00,
2017-12-17 01:56:00,41.4,38.4,30.08,ESE,112,3.2,-999.0,89,-99.99,,,0.08,,2017-12-17 06:56:00,
2017-12-17 02:01:00,41.4,38.7,30.08,WSW,247,0.0,-999.0,90,-99.99,,,0.09,,2017-12-17 07:01:00,
2017-12-17 02:06:00,41.2,38.5,30.08,SE,135,0.0,-999.0,90,-99.99,,,0.10,,2017-12-17 07:06:00,
2017-12-17 02:11:00,41.2,38.5,30.08,ESE,112,0.0,-999.0,90,-99.99,,,0.11,,2017-12-17 07:11:00,
2017-12-17 02:13:00,41.2,38.5,30.09,NE,45,0.0,-999.0,90,-99.99,,,0.11,,2017-12-17 07:13:00,
2017-12-17 02:19:00,41.2,38.8,30.09,NNE,22,0.0,-999.0,91,-99.99,,,0.13,,2017-12-17 07:19:00,
2017-12-17 02:24:00,41.0,38.6,30.09,NE,45,0.0,-999.0,91,-99.99,,,0.15,,2017-12-17 07:24:00,
2017-12-17 02:26:00,41.0,38.6,30.09,NNE,22,0.0,-999.0,91,-99.99,,,0.15,,2017-12-17 07:26:00,
2017-12-17 02:32:00,41.0,38.6,30.09,East,90,0.0,-999.0,91,-99.99,,,0.16,,2017-12-17 07:32:00,
2017-12-17 02:38:00,41.0,38.9,30.07,NE,45,0.0,-999.0,92,-99.99,,,0.18,,2017-12-17 07:38:00,
2017-12-17 02:43:00,41.0,38.9,30.07,East,90,2.2,-999.0,92,-99.99,,,0.18,,2017-12-17 07:43:00,
2017-12-17 02:45:00,41.0,38.9,30.07,East,90,0.0,-999.0,92,-99.99,,,0.18,,2017-12-17 07:45:00,
2017-12-17 02:51:00,41.0,38.9,30.06,ESE,112,0.0,-999.0,92,-99.99,,,0.19,,2017-12-17 07:51:00,
2017-12-17 02:56:00,41.0,38.9,30.06,NNE,22,0.0,-999.0,92,-99.99,,,0.19,,2017-12-17 07:56:00,
2017-12-17 03:01:00,41.0,38.9,30.06,SSE,157,1.1,-999.0,92,-99.99,,,0.19,,2017-12-17 08:01:00,
2017-12-17 03:06:00,41.0,38.9,30.06,East,90,0.0,-999.0,92,-99.99,,,0.20,,2017-12-17 08:06:00,
2017-12-17 03:12:00,41.0,38.9,30.06,East,90,0.0,-999.0,92,-99.99,,,0.21,,2017-12-17 08:12:00,
2017-12-17 03:14:00,41.0,38.9,30.05,East,90,0.0,-999.0,92,-99.99,,,0.21,,2017-12-17 08:14:00,
2017-12-17 03:19:00,41.0,38.9,30.05,East,90,1.7,-999.0,92,-99.99,,,0.21,,2017-12-17 08:19:00,
2017-12-17 03:24:00,41.2,39.1,30.06,East,90,4.2,-999.0,92,-99.99,,,0.22,,2017-12-17 08:24:00,
2017-12-17 03:27:00,41.2,39.1,30.06,East,90,3.7,-999.0,92,-99.99,,,0.22,,2017-12-17 08:27:00,
2017-12-17 03:33:00,41.2,39.1,30.06,SE,135,0.0,-999.0,92,-99.99,,,0.22,,2017-12-17 08:33:00,
2017-12-17 03:38:00,41.2,39.1,30.06,ENE,67,0.0,-999.0,92,-99.99,,,0.23,,2017-12-17 08:38:00,
2017-12-17 03:43:00,41.2,39.1,30.06,East,90,4.2,-999.0,92,-99.99,,,0.24,,2017-12-17 08:43:00,
2017-12-17 03:48:00,41.2,39.1,30.06,SE,135,3.2,-999.0,92,-99.99,,,0.25,,2017-12-17 08:48:00,
2017-12-17 03:54:00,41.2,39.1,30.05,ESE,112,3.7,-999.0,92,-99.99,,,0.25,,2017-12-17 08:54:00,
2017-12-17 03:59:00,41.2,39.1,30.05,NE,45,0.0,-999.0,92,-99.99,,,0.25,,2017-12-17 08:59:00,
2017-12-17 04:03:00,41.2,39.1,30.02,East,90,3.7,-999.0,92,-99.99,,,0.25,,2017-12-17 09:03:00,
2017-12-17 04:09:00,41.2,39.1,30.02,ESE,112,2.7,-999.0,92,-99.99,,,0.26,,2017-12-17 09:09:00,
2017-12-17 04:14:00,41.2,39.1,30.02,North,360,4.2,-999.0,92,-99.99,,,0.26,,2017-12-17 09:14:00,
2017-12-17 04:19:00,41.2,39.1,30.02,ENE,67,2.7,-999.0,92,-99.99,,,0.26,,2017-12-17 09:19:00,
2017-12-17 04:24:00,41.2,39.3,30.02,SSW,202,0.0,-999.0,93,-99.99,,,0.26,,2017-12-17 09:24:00,
2017-12-17 04:29:00,41.4,39.5,30.02,South,180,3.2,-999.0,93,-99.99,,,0.26,,2017-12-17 09:29:00,
2017-12-17 04:35:00,41.4,39.5,30.02,NNE,22,0.0,-999.0,93,-99.99,,,0.26,,2017-12-17 09:35:00,
2017-12-17 04:40:00,41.4,39.5,30.04,ENE,67,0.0,-999.0,93,-99.99,,,0.27,,2017-12-17 09:40:00,
2017-12-17 04:45:00,41.4,39.5,30.04,SSW,202,0.0,-999.0,93,-99.99,,,0.27,,2017-12-17 09:45:00,
2017-12-17 04:47:00,41.4,39.5,30.04,WNW,292,2.7,-999.0,93,-99.99,,,0.27,,2017-12-17 09:47:00,
2017-12-17 04:53:00,41.4,39.5,30.01,SW,225,4.7,-999.0,93,-99.99,,,0.27,,2017-12-17 09:53:00,
2017-12-17 04:58:00,41.5,39.6,30.01,SSW,202,2.2,-999.0,93,-99.99,,,0.27,,2017-12-17 09:58:00,
2017-12-17 04:59:00,41.5,39.6,30.01,SW,225,3.2,-999.0,93,-99.99,,,0.27,,2017-12-17 09:59:00,
2017-12-17 05:04:00,41.5,39.6,30.03,East,90,2.2,-999.0,93,-99.99,,,0.27,,2017-12-17 10:04:00,
2017-12-17 05:09:00,41.5,39.6,30.03,ESE,112,0.0,-999.0,93,-99.99,,,0.27,,2017-12-17 10:09:00,
2017-12-17 05:15:00,41.5,39.6,30.02,SSW,202,1.7,-999.0,93,-99.99,,,0.27,,2017-12-17 10:15:00,
2017-12-17 05:20:00,41.5,39.6,30.02,WNW,292,2.7,-999.0,93,-99.99,,,0.27,,2017-12-17 10:20:00,
2017-12-17 05:21:00,41.5,39.6,30.02,SW,225,2.2,-999.0,93,-99.99,,,0.27,,2017-12-17 10:21:00,
2017-12-17 05:23:00,41.5,39.6,30.02,SW,225,2.2,-999.0,93,-99.99,,,0.27,,2017-12-17 10:23:00,
2017-12-17 05:28:00,41.5,39.6,30.04,SW,225,1.1,-999.0,93,-99.99,,,0.27,,2017-12-17 10:28:00,
2017-12-17 05:33:00,41.5,39.6,30.04,North,360,0.0,-999.0,93,-99.99,,,0.27,,2017-12-17 10:33:00,
2017-12-17 05:39:00,41.5,39.6,30.04,NNE,22,0.0,-999.0,93,-99.99,,,0.27,,2017-12-17 10:39:00,
2017-12-17 05:45:00,41.5,39.6,30.04,SW,225,0.0,-999.0,93,-99.99,,,0.27,,2017-12-17 10:45:00,
2017-12-17 05:50:00,41.5,39.6,30.04,WSW,247,0.0,-999.0,93,-99.99,,,0.27,,2017-12-17 10:50:00,
2017-12-17 05:53:00,41.5,39.6,30.04,NW,315,0.0,-999.0,93,-99.99,,,0.27,,2017-12-17 10:53:00,
2017-12-17 05:58:00,41.5,39.6,30.04,East,90,0.0,-999.0,93,-99.99,,,0.27,,2017-12-17 10:58:00,
2017-12-17 06:00:00,41.5,39.6,30.04,East,90,0.0,-999.0,93,-99.99,,,0.27,,2017-12-17 11:00:00,
2017-12-17 06:05:00,41.5,39.6,30.04,WSW,247,0.0,-999.0,93,-99.99,,,0.27,,2017-12-17 11:05:00,
2017-12-17 06:08:00,41.5,39.6,30.04,NNE,22,0.0,-999.0,93,-99.99,,,0.27,,2017-12-17 11:08:00,
2017-12-17 06:13:00,41.5,39.6,30.04,West,270,0.0,-999.0,93,-99.99,,,0.27,,2017-12-17 11:13:00,
2017-12-17 06:19:00,41.5,39.6,30.04,WSW,247,0.0,-999.0,93,-99.99,,,0.27,,2017-12-17 11:19:00,
2017-12-17 06:24:00,41.5,39.6,30.05,West,270,0.0,-999.0,93,-99.99,,,0.27,,2017-12-17 11:24:00,
2017-12-17 06:29:00,41.5,39.6,30.05,SW,225,0.0,-999.0,93,-99.99,,,0.27,,2017-12-17 11:29:00,
2017-12-17 06:35:00,41.5,39.6,30.05,NE,45,0.0,-999.0,93,-99.99,,,0.27,,2017-12-17 11:35:00,
2017-12-17 06:40:00,41.5,39.6,30.05,East,90,0.0,-999.0,93,-99.99,,,0.27,,2017-12-17 11:40:00,
2017-12-17 06:42:00,41.5,39.6,30.05,East,90,0.0,-999.0,93,-99.99,,,0.27,,2017-12-17 11:42:00,
2017-12-17 06:48:00,41.5,39.6,30.05,East,90,0.0,-999.0,93,-99.99,,,0.27,,2017-12-17 11:48:00,
2017-12-17 06:53:00,41.5,39.6,30.05,ESE,112,0.0,-999.0,93,-99.99,,,0.27,,2017-12-17 11:53:00,
2017-12-17 06:58:00,41.5,39.6,30.05,NW,315,0.0,-999.0,93,-99.99,,,0.27,,2017-12-17 11:58:00,
2017-12-17 07:03:00,41.5,39.6,30.06,SSW,202,0.0,-999.0,93,-99.99,,,0.28,,2017-12-17 12:03:00,
2017-12-17 07:08:00,41.7,40.1,30.06,SSE,157,0.0,-999.0,94,-99.99,,,0.28,,2017-12-17 12:08:00,
2017-12-17 07:13:00,41.7,40.1,30.06,SSE,157,0.0,-999.0,94,-99.99,,,0.28,,2017-12-17 12:13:00,
2017-12-17 07:14:00,41.7,40.1,30.06,SSE,157,0.0,-999.0,94,-99.99,,,0.28,,2017-12-17 12:14:00,
2017-12-17 07:19:00,41.7,40.1,30.06,West,270,0.0,-999.0,94,-99.99,,,0.28,,2017-12-17 12:19:00,
2017-12-17 07:20:00,41.7,40.1,30.06,West,270,0.0,-999.0,94,-99.99,,,0.28,,2017-12-17 12:20:00,
2017-12-17 07:25:00,41.7,40.1,30.07,SSW,202,0.0,-999.0,94,-99.99,,,0.28,,2017-12-17 12:25:00,
2017-12-17 07:30:00,41.7,40.1,30.07,SSE,157,0.0,-999.0,94,-99.99,,,0.28,,2017-12-17 12:30:00,
2017-12-17 07:35:00,41.7,40.1,30.07,South,180,0.0,-999.0,94,-99.99,,,0.28,,2017-12-17 12:35:00,
2017-12-17 07:40:00,41.7,40.1,30.07,SW,225,0.0,-999.0,94,-99.99,,,0.28,,2017-12-17 12:40:00,
2017-12-17 07:43:00,41.7,40.1,30.07,WSW,247,0.0,-999.0,94,-99.99,,,0.28,,2017-12-17 12:43:00,
2017-12-17 07:48:00,41.7,40.1,30.08,West,270,0.0,-999.0,94,-99.99,,,0.28,,2017-12-17 12:48:00,
2017-12-17 07:53:00,41.7,40.1,30.08,WSW,247,0.0,-999.0,94,-99.99,,,0.28,,2017-12-17 12:53:00,